GW4332 Weather Reports


time (UTC)temp
C
wind
direction
speed
KPH
gust
KPH
rain 1hr
cm
rain 24hr
cm
rain mn
cm
humidity
%
barometer
mb
20260509233030 12 48 6.4 9.7 0.00 0.00 0.00 75 1016.5
20260509232029 13 47 6.4 11.3 0.00 0.00 0.00 74 1016.5
20260509231030 12 51 6.4 12.9 0.00 0.00 0.00 73 1016.6
20260509230030 13 48 6.4 12.9 0.00 0.00 0.00 73 1016.6
20260509225029 13 35 8.0 12.9 0.00 0.00 0.00 72 1016.7
20260509224029 13 37 8.0 16.1 0.00 0.00 0.00 72 1016.8
20260509223030 13 44 9.7 16.1 0.00 0.00 0.00 72 1016.8
20260509222035 13 40 9.7 17.7 0.00 0.00 0.00 72 1016.9
20260509221030 13 33 11.3 17.7 0.00 0.00 0.00 72 1016.9
20260509220030 13 39 11.3 19.3 0.00 0.00 0.00 72 1016.9
20260509215029 13 26 9.7 17.7 0.00 0.00 0.00 73 1017.0
20260509214030 13 32 11.3 19.3 0.00 0.00 0.00 73 1016.9
20260509213030 13 37 12.9 19.3 0.00 0.00 0.00 73 1017.0
20260509212029 13 41 11.3 17.7 0.00 0.00 0.00 73 1017.1
20260509211030 13 34 11.3 17.7 0.00 0.00 0.00 72 1017.1
20260509210030 13 36 11.3 19.3 0.00 0.00 0.00 71 1017.0
20260509205030 14 37 11.3 17.7 0.00 0.00 0.00 71 1017.2
20260509204030 14 34 11.3 19.3 0.00 0.00 0.00 70 1017.1
20260509203030 14 40 9.7 17.7 0.00 0.00 0.00 70 1017.2
20260509202029 14 38 9.7 16.1 0.00 0.00 0.00 69 1017.2
20260509201030 15 33 9.7 17.7 0.00 0.00 0.00 69 1017.1
20260509200030 15 43 9.7 16.1 0.00 0.00 0.00 68 1017.1
20260509195030 15 41 9.7 16.1 0.00 0.00 0.00 68 1017.1
20260509194029 15 28 9.7 19.3 0.00 0.00 0.00 69 1017.1
20260509193029 15 24 11.3 19.3 0.00 0.00 0.00 70 1016.9
20260509192030 15 6 12.9 20.9 0.00 0.00 0.00 69 1016.8
20260509191030 15 357 14.5 20.9 0.00 0.00 0.00 68 1016.7
20260509190030 16 349 14.5 20.9 0.00 0.00 0.00 66 1016.7
20260509185029 16 357 11.3 16.1 0.00 0.00 0.00 65 1016.7
20260509184030 16 23 9.7 16.1 0.00 0.00 0.00 65 1016.7
20260509183030 16 357 11.3 17.7 0.00 0.00 0.00 65 1016.7
20260509182030 16 350 11.3 17.7 0.00 0.00 0.00 63 1016.6
20260509181030 16 1 9.7 17.7 0.00 0.00 0.00 64 1016.7
20260509180030 16 352 8.0 16.1 0.00 0.00 0.00 64 1016.6
20260509175029 16 333 12.9 17.7 0.00 0.00 0.00 65 1016.7
20260509174029 16 333 14.5 19.3 0.00 0.00 0.00 63 1016.7
20260509173030 16 331 16.1 20.9 0.00 0.00 0.00 62 1016.7
20260509172030 16 338 16.1 19.3 0.00 0.00 0.00 62 1016.8
20260509171029 16 339 14.5 20.9 0.00 0.00 0.00 62 1016.7
20260509170030 16 352 14.5 19.3 0.00 0.00 0.00 59 1016.7
20260509165030 16 349 12.9 20.9 0.00 0.00 0.00 61 1016.5
20260509164030 16 339 17.7 22.5 0.00 0.00 0.00 59 1016.5
20260509163029 16 352 16.1 22.5 0.00 0.00 0.00 58 1016.6
20260509162030 16 9 14.5 20.9 0.00 0.00 0.00 60 1016.5
20260509161030 17 0 14.5 22.5 0.00 0.00 0.00 60 1016.5
20260509160029 16 354 14.5 20.9 0.00 0.00 0.00 60 1016.4
20260509155030 16 343 16.1 22.5 0.00 0.00 0.00 60 1016.5
20260509154030 16 2 14.5 20.9 0.00 0.00 0.00 59 1016.5
20260509153030 16 352 14.5 22.5 0.00 0.00 0.00 60 1016.6
20260509152029 16 340 16.1 22.5 0.00 0.00 0.00 61 1016.6
20260509151030 16 343 17.7 22.5 0.00 0.00 0.00 61 1016.7
20260509150030 16 348 14.5 20.9 0.00 0.00 0.00 61 1017.0
20260509145030 16 340 17.7 24.1 0.00 0.00 0.00 60 1017.2
20260509144030 16 332 16.1 22.5 0.00 0.00 0.00 61 1017.3
20260509143029 16 1 11.3 22.5 0.00 0.00 0.00 60 1017.5
20260509142030 15 338 17.7 22.5 0.00 0.00 0.00 61 1017.4
20260509141029 16 331 19.3 24.1 0.00 0.00 0.00 60 1017.5
20260509140030 16 339 17.7 24.1 0.00 0.00 0.00 58 1017.6
20260509135030 16 341 16.1 24.1 0.00 0.00 0.00 58 1017.7
20260509134029 16 0 14.5 22.5 0.00 0.00 0.00 61 1017.7
20260509133030 15 335 17.7 24.1 0.00 0.00 0.00 61 1017.9
20260509132029 15 329 17.7 24.1 0.00 0.00 0.00 60 1018.2
20260509131029 15 338 16.1 20.9 0.00 0.00 0.00 61 1018.2
20260509130030 15 335 14.5 20.9 0.00 0.00 0.00 60 1018.4
20260509125029 15 327 17.7 22.5 0.00 0.00 0.00 61 1018.6
20260509124030 15 323 17.7 22.5 0.00 0.00 0.00 62 1018.6
20260509123030 15 327 17.7 24.1 0.00 0.00 0.00 63 1018.6
20260509122029 15 321 19.3 22.5 0.00 0.00 0.00 61 1018.7
20260509121029 16 346 9.7 20.9 0.00 0.00 0.00 58 1018.7
20260509120030 16 69 6.4 19.3 0.00 0.00 0.00 57 1018.7
20260509115029 16 83 6.4 19.3 0.00 0.00 0.00 56 1018.7
20260509114030 16 55 9.7 19.3 0.00 0.00 0.00 55 1018.7
20260509113030 15 12 9.7 20.9 0.00 0.00 0.00 57 1018.7
20260509112029 15 31 12.9 20.9 0.00 0.00 0.00 57 1018.9
20260509111030 15 5 11.3 20.9 0.00 0.00 0.00 58 1018.9
20260509110029 16 37 6.4 14.5 0.00 0.00 0.00 57 1019.0
20260509105030 15 20 8.0 22.5 0.00 0.00 0.00 58 1019.0
20260509104029 15 59 8.0 19.3 0.00 0.00 0.00 56 1019.2
20260509103030 15 61 6.4 19.3 0.00 0.00 0.00 56 1019.4
20260509102029 16 36 6.4 16.1 0.00 0.00 0.00 55 1019.4
20260509101030 16 64 9.7 19.3 0.00 0.00 0.00 56 1019.5
20260509100030 16 61 3.2 17.7 0.00 0.00 0.00 59 1019.6
20260509095030 15 85 4.8 14.5 0.00 0.00 0.00 61 1019.5
20260509094029 15 56 8.0 16.1 0.00 0.00 0.00 61 1019.5
20260509093030 15 78 3.2 19.3 0.00 0.00 0.00 62 1019.4
20260509092029 14 89 6.4 19.3 0.00 0.00 0.00 63 1019.5
20260509091030 14 109 4.8 22.5 0.00 0.00 0.00 65 1019.5
20260509090029 13 102 8.0 22.5 0.00 0.00 0.00 66 1019.5
20260509085030 13 76 9.7 20.9 0.00 0.00 0.00 67 1019.5
20260509084030 13 103 3.2 20.9 0.00 0.00 0.00 69 1019.4
20260509083029 13 130 1.6 22.5 0.00 0.00 0.00 69 1019.5
20260509082030 13 78 3.2 24.1 0.00 0.00 0.00 71 1019.6
20260509081029 13 101 8.0 25.7 0.00 0.00 0.00 72 1019.8
20260509080030 12 72 1.6 17.7 0.00 0.00 0.00 73 1019.8
20260509075030 12 178 0.0 14.5 0.00 0.00 0.00 74 1019.9
20260509074030 12 223 0.0 14.5 0.00 0.00 0.00 74 1019.9
20260509073029 12 120 4.8 19.3 0.00 0.00 0.00 75 1019.8
20260509072030 12 114 3.2 16.1 0.00 0.00 0.00 76 1019.9
20260509071029 12 118 1.6 14.5 0.00 0.00 0.00 77 1019.9
20260509070030 11 324 1.6 17.7 0.00 0.00 0.00 78 1019.9
20260509065029 11 84 1.6 14.5 0.00 0.00 0.00 79 1019.9
20260509064030 11 279 1.6 9.7 0.00 0.00 0.00 80 1020.0
20260509063029 11 68 0.0 12.9 0.00 0.00 0.00 81 1020.1
20260509062030 10 140 1.6 17.7 0.00 0.00 0.00 82 1020.0
20260509061030 10 107 1.6 11.3 0.00 0.00 0.00 82 1020.0
20260509060030 10 171 1.6 14.5 0.00 0.00 0.00 83 1020.1
20260509055030 10 155 0.0 9.7 0.00 0.00 0.00 83 1019.9
20260509054030 9 93 1.6 12.9 0.00 0.00 0.00 83 1019.8
20260509053030 9 114 3.2 12.9 0.00 0.00 0.00 83 1019.7
20260509052029 9 95 1.6 12.9 0.00 0.00 0.00 83 1019.6
20260509051030 9 113 0.0 12.9 0.00 0.00 0.00 83 1019.7
20260509050030 8 118 1.6 11.3 0.00 0.00 0.00 83 1019.6
20260509045029 8 137 1.6 14.5 0.00 0.00 0.00 83 1019.5
20260509044030 8 109 3.2 12.9 0.00 0.00 0.00 83 1019.5
20260509043030 8 113 3.2 12.9 0.00 0.00 0.00 82 1019.5
20260509042030 8 103 3.2 11.3 0.00 0.00 0.00 82 1019.5
20260509041030 8 109 3.2 11.3 0.00 0.00 0.00 81 1019.4
20260509040029 8 159 3.2 14.5 0.00 0.00 0.00 81 1019.4
20260509035030 9 119 3.2 11.3 0.00 0.00 0.00 80 1019.5
20260509034030 9 104 4.8 11.3 0.00 0.00 0.00 80 1019.5
20260509033029 9 103 4.8 9.7 0.00 0.00 0.00 79 1019.4
20260509032030 9 103 3.2 9.7 0.00 0.00 0.00 79 1019.5
20260509031030 9 105 6.4 12.9 0.00 0.00 0.00 78 1019.5
20260509030029 10 106 6.4 11.3 0.00 0.00 0.00 78 1019.5
20260509025030 10 98 6.4 11.3 0.00 0.00 0.00 78 1019.5
20260509024030 10 98 6.4 11.3 0.00 0.00 0.00 77 1019.5
20260509023030 10 102 4.8 9.7 0.00 0.00 0.00 77 1019.6
20260509022030 10 106 3.2 6.4 0.00 0.00 0.00 77 1019.6
20260509021029 10 112 3.2 6.4 0.00 0.00 0.00 76 1019.5
20260509020030 10 104 1.6 4.8 0.00 0.00 0.00 76 1019.6
20260509015030 10 108 3.2 9.7 0.00 0.00 0.00 75 1019.6
20260509014029 10 121 1.6 9.7 0.00 0.00 0.00 75 1019.6
20260509013030 11 95 1.6 8.0 0.00 0.00 0.00 74 1019.6
20260509012029 11 160 0.0 6.4 0.00 0.00 0.00 74 1019.6
20260509011029 11 136 1.6 11.3 0.00 0.00 0.00 74 1019.6
20260509010030 11 112 1.6 11.3 0.00 0.00 0.00 73 1019.6
20260509005030 11 130 3.2 12.9 0.00 0.00 0.00 73 1019.6
20260509004029 11 98 1.6 12.9 0.00 0.00 0.00 73 1019.5
20260509003030 11 105 3.2 11.3 0.00 0.00 0.00 72 1019.5
20260509002029 11 149 1.6 14.5 0.00 0.00 0.00 72 1019.5
20260509001029 11 182 1.6 12.9 0.00 0.00 0.00 71 1019.4
20260509000030 12 145 3.2 14.5 0.00 0.00 0.00 71 1019.3
20260508235030 12 122 1.6 14.5 0.00 0.00 0.00 71 1019.3
20260508234029 12 125 1.6 14.5 0.00 0.00 0.00 70 1019.2